Location: Ocean City
(38.3360°N, 75.0850°W)
Time: 19:15:25
(UTC-04:00)

BEESAT 2 - Pass Details

Date: 22 May 2019
Orbit: 502 x 528 km, 64.9° (Epoch: 15 June)

Event Time Altitude Azimuth Distance (km) Brightness Sun altitude
Rises 04:59:51 0° 316° (NW) 2,669 ? -8.3°
Reaches altitude 10° 05:02:19 10° 303° (WNW) 1,775 ? -7.9°
Maximum altitude 05:05:34 25° 248° (WSW) 1,101 ? -7.3°
Drops below altitude 10° 05:08:49 10° 192° (SSW) 1,762 ? -6.8°
Sets 05:11:16 0° 179° (S) 2,643 ? -6.4°
